| time (UTC) | temp F | wind direction | speed MPH | gust MPH | rain 1hr in | rain 24hr in | rain mn in | humidity % | barometer mb |
| 20260504212917 | 79 | 0.0 | 0.0 | 0.00 | 0.00 | 0.00 | 25 | 1010.6 | |
| 20260504211916 | 80 | 241 | 5.0 | 7.0 | 0.00 | 0.00 | 0.00 | 24 | 1010.9 |
| 20260504210916 | 78 | 282 | 1.0 | 3.0 | 0.00 | 0.00 | 0.00 | 25 | 1011.0 |
| 20260504205916 | 78 | 251 | 0.0 | 2.0 | 0.00 | 0.00 | 0.00 | 26 | 1011.1 |
| 20260504204916 | 78 | 312 | 6.0 | 8.0 | 0.00 | 0.00 | 0.00 | 26 | 1011.2 |
| 20260504202916 | 77 | 345 | 4.0 | 6.0 | 0.00 | 0.00 | 0.00 | 27 | 1011.3 |
| 20260504201917 | 77 | 324 | 5.0 | 6.0 | 0.00 | 0.00 | 0.00 | 27 | 1011.5 |
| 20260504201316 | 78 | 270 | 5.0 | 7.0 | 0.00 | 0.00 | 0.00 | 26 | 1011.5 |
| 20260504200316 | 76 | 309 | 6.0 | 9.0 | 0.00 | 0.00 | 0.00 | 27 | 1011.7 |
| 20260504195317 | 75 | 347 | 2.0 | 4.0 | 0.00 | 0.00 | 0.00 | 29 | 1011.7 |
| 20260504194317 | 76 | 326 | 5.0 | 7.0 | 0.00 | 0.00 | 0.00 | 28 | 1011.8 |
| 20260504193316 | 75 | 256 | 5.0 | 6.0 | 0.00 | 0.00 | 0.00 | 28 | 1011.9 |
| 20260504192317 | 75 | 262 | 2.0 | 7.0 | 0.00 | 0.00 | 0.00 | 29 | 1011.9 |
| 20260504191317 | 75 | 252 | 7.0 | 9.0 | 0.00 | 0.00 | 0.00 | 30 | 1012.2 |
| 20260504190316 | 74 | 223 | 6.0 | 8.0 | 0.00 | 0.00 | 0.00 | 31 | 1012.4 |
| 20260504185316 | 73 | 245 | 6.0 | 8.0 | 0.00 | 0.00 | 0.00 | 32 | 1012.4 |
| 20260504184317 | 73 | 263 | 6.0 | 7.0 | 0.00 | 0.00 | 0.00 | 33 | 1012.7 |
| 20260504183417 | 72 | 336 | 0.0 | 1.0 | 0.00 | 0.00 | 0.00 | 34 | 1012.8 |
| 20260504182417 | 72 | 256 | 8.0 | 11.0 | 0.00 | 0.00 | 0.00 | 34 | 1012.7 |
| 20260504181417 | 72 | 294 | 5.0 | 7.0 | 0.00 | 0.00 | 0.00 | 35 | 1012.7 |
| 20260504180417 | 71 | 267 | 6.0 | 7.0 | 0.00 | 0.00 | 0.00 | 35 | 1013.0 |
| 20260504175417 | 71 | 294 | 5.0 | 8.0 | 0.00 | 0.00 | 0.00 | 36 | 1012.8 |
| 20260504174417 | 70 | 274 | 5.0 | 6.0 | 0.00 | 0.00 | 0.00 | 37 | 1012.6 |
| 20260504173417 | 70 | 309 | 6.0 | 8.0 | 0.00 | 0.00 | 0.00 | 37 | 1012.8 |
| 20260504172417 | 70 | 303 | 5.0 | 8.0 | 0.00 | 0.00 | 0.00 | 38 | 1013.0 |
| 20260504171416 | 70 | 291 | 6.0 | 8.0 | 0.00 | 0.00 | 0.00 | 38 | 1013.0 |
| 20260504170416 | 69 | 332 | 6.0 | 9.0 | 0.00 | 0.00 | 0.00 | 39 | 1012.4 |
| 20260504160417 | 68 | 299 | 7.0 | 10.0 | 0.00 | 0.00 | 0.00 | 41 | 1012.3 |
| 20260504150417 | 66 | 314 | 7.0 | 9.0 | 0.00 | 0.00 | 0.00 | 45 | 1012.6 |
| 20260504140416 | 65 | 271 | 6.0 | 9.0 | 0.00 | 0.00 | 0.00 | 46 | 1012.4 |
| 20260504130417 | 65 | 270 | 6.0 | 7.0 | 0.00 | 0.00 | 0.00 | 45 | 1011.1 |
| 20260504081516 | 68 | 297 | 11.0 | 16.0 | 0.00 | 0.00 | 0.00 | 40 | 1010.4 |
| 20260504080517 | 69 | 302 | 14.0 | 18.0 | 0.00 | 0.00 | 0.00 | 39 | 1010.3 |
| 20260504070117 | 71 | 304 | 12.0 | 15.0 | 0.00 | 0.00 | 0.00 | 37 | 1008.8 |
| 20260504045917 | 76 | 174 | 10.0 | 14.0 | 0.00 | 0.00 | 0.00 | 47 | 1007.1 |
| 20260504044917 | 76 | 162 | 9.0 | 13.0 | 0.00 | 0.00 | 0.00 | 45 | 1007.2 |
| 20260504043917 | 77 | 165 | 11.0 | 15.0 | 0.00 | 0.00 | 0.00 | 44 | 1007.4 |
| 20260504042916 | 77 | 158 | 10.0 | 14.0 | 0.00 | 0.00 | 0.00 | 43 | 1007.2 |
| 20260504041917 | 77 | 164 | 10.0 | 15.0 | 0.00 | 0.00 | 0.00 | 41 | 1006.9 |
| 20260504040917 | 77 | 175 | 9.0 | 14.0 | 0.00 | 0.00 | 0.00 | 40 | 1006.8 |
| 20260504035917 | 78 | 164 | 10.0 | 14.0 | 0.00 | 0.00 | 0.00 | 39 | 1006.5 |
| 20260504034917 | 78 | 164 | 10.0 | 14.0 | 0.00 | 0.00 | 0.00 | 38 | 1006.5 |
| 20260504033917 | 78 | 160 | 12.0 | 15.0 | 0.00 | 0.00 | 0.00 | 37 | 1006.3 |
| 20260504032916 | 79 | 165 | 12.0 | 17.0 | 0.00 | 0.00 | 0.00 | 36 | 1006.1 |
| 20260504031917 | 79 | 167 | 9.0 | 15.0 | 0.00 | 0.00 | 0.00 | 35 | 1006.1 |
| 20260504030917 | 79 | 163 | 10.0 | 14.0 | 0.00 | 0.00 | 0.00 | 35 | 1006.0 |
| 20260504025917 | 80 | 160 | 13.0 | 17.0 | 0.00 | 0.00 | 0.00 | 34 | 1005.9 |
| 20260504024917 | 80 | 152 | 15.0 | 18.0 | 0.00 | 0.00 | 0.00 | 33 | 1005.4 |
| 20260504023917 | 81 | 150 | 14.0 | 18.0 | 0.00 | 0.00 | 0.00 | 31 | 1005.2 |
| 20260504022917 | 82 | 147 | 14.0 | 18.0 | 0.00 | 0.00 | 0.00 | 30 | 1005.0 |
| 20260504021917 | 82 | 147 | 12.0 | 17.0 | 0.00 | 0.00 | 0.00 | 29 | 1004.7 |
| 20260504020919 | 83 | 151 | 15.0 | 18.0 | 0.00 | 0.00 | 0.00 | 28 | 1004.3 |
| 20260504015917 | 84 | 150 | 11.0 | 15.0 | 0.00 | 0.00 | 0.00 | 26 | 1004.4 |
| 20260504014917 | 85 | 153 | 14.0 | 17.0 | 0.00 | 0.00 | 0.00 | 22 | 1004.1 |
| 20260504013916 | 86 | 153 | 14.0 | 18.0 | 0.00 | 0.00 | 0.00 | 22 | 1004.0 |
| 20260504012916 | 87 | 150 | 13.0 | 17.0 | 0.00 | 0.00 | 0.00 | 22 | 1004.0 |
| 20260504011917 | 87 | 152 | 14.0 | 18.0 | 0.00 | 0.00 | 0.00 | 22 | 1003.8 |
| 20260504010917 | 88 | 152 | 15.0 | 18.0 | 0.00 | 0.00 | 0.00 | 21 | 1003.8 |
| 20260504010317 | 89 | 161 | 14.0 | 18.0 | 0.00 | 0.00 | 0.00 | 20 | 1003.6 |
| 20260504005317 | 89 | 152 | 14.0 | 18.0 | 0.00 | 0.00 | 0.00 | 20 | 1003.5 |
| 20260504004317 | 90 | 155 | 12.0 | 17.0 | 0.00 | 0.00 | 0.00 | 19 | 1003.5 |
| 20260504003317 | 92 | 147 | 15.0 | 18.0 | 0.00 | 0.00 | 0.00 | 17 | 1003.2 |
| 20260504002317 | 93 | 172 | 11.0 | 17.0 | 0.00 | 0.00 | 0.00 | 17 | 1003.4 |
| 20260504001317 | 94 | 166 | 14.0 | 18.0 | 0.00 | 0.00 | 0.00 | 16 | 1003.5 |
| 20260504000317 | 94 | 157 | 13.0 | 19.0 | 0.00 | 0.00 | 0.00 | 16 | 1003.4 |
| 20260503235317 | 95 | 148 | 12.0 | 17.0 | 0.00 | 0.00 | 0.00 | 16 | 1003.3 |
| 20260503234317 | 95 | 153 | 15.0 | 18.0 | 0.00 | 0.00 | 0.00 | 16 | 1003.5 |
| 20260503233317 | 95 | 160 | 14.0 | 18.0 | 0.00 | 0.00 | 0.00 | 16 | 1003.6 |
| 20260503232316 | 96 | 158 | 14.0 | 18.0 | 0.00 | 0.00 | 0.00 | 15 | 1003.5 |
| 20260503231316 | 96 | 154 | 16.0 | 18.0 | 0.00 | 0.00 | 0.00 | 16 | 1003.5 |
| 20260503230317 | 96 | 157 | 12.0 | 18.0 | 0.00 | 0.00 | 0.00 | 15 | 1003.6 |
| 20260503225317 | 96 | 153 | 13.0 | 17.0 | 0.00 | 0.00 | 0.00 | 15 | 1003.6 |
| 20260503224317 | 97 | 166 | 14.0 | 17.0 | 0.00 | 0.00 | 0.00 | 15 | 1003.9 |
| 20260503223316 | 97 | 170 | 13.0 | 17.0 | 0.00 | 0.00 | 0.00 | 15 | 1003.9 |
| 20260503222316 | 97 | 171 | 11.0 | 16.0 | 0.00 | 0.00 | 0.00 | 15 | 1003.9 |
| 20260503221316 | 97 | 161 | 15.0 | 19.0 | 0.00 | 0.00 | 0.00 | 15 | 1004.0 |
| 20260503220317 | 98 | 180 | 14.0 | 18.0 | 0.00 | 0.00 | 0.00 | 16 | 1004.2 |
| 20260503215317 | 97 | 167 | 12.0 | 16.0 | 0.00 | 0.00 | 0.00 | 15 | 1004.4 |
| 20260503214216 | 98 | 170 | 14.0 | 17.0 | 0.00 | 0.00 | 0.00 | 15 | 1004.5 |
| 20260503213217 | 98 | 161 | 11.0 | 15.0 | 0.00 | 0.00 | 0.00 | 16 | 1004.6 |